Home > Weather > Lafayette > Past weeks

Flag for USA Past Weather in Lafayette, Louisiana, USA — Yesterday and Last 2 Weeks

Now
80 °F

Clear.


Feels Like: 86 °F
Forecast: 76 / 94 °F
Wind: 5 mph from West

Location: Lafayette Regional Airport

Current Time: Jul 2, 2016 at 4:45:14 AM

Latest Report: Jul 2, 2016 at 3:53 AM


Visibility: 10 mi

Pressure: 30.01 "Hg

Humidity: 90%

Dew Point: 77 °F

Location of LafayetteLocation

Past Weather in Lafayette — Graph

°F

Lafayette Temperature Yesterday

Maximum temperature yesterday: 96 °F (at 2:53 PM)
Minimum temperature yesterday: 76 °F (at 4:53 AM)
Average temperature yesterday: 86 °F

High & Low Weather Summary for the Past Weeks

 TemperatureHumidityPressure
High96 °F (Jun 26, 3:53 PM)97% (Jun 19, 4:53 AM)30.23 "Hg (Jun 19, 4:53 AM)
Low73 °F (Jun 19, 4:53 AM)38% (Jul 1, 2:53 PM)29.90 "Hg (Jun 17, 7:53 PM)
Average83 °F76%30.04 "Hg
* Reported Jun 17 2:53 AM — Jul 2 2:53 AM, Lafayette, Weather by CustomWeather, © 2016

Note: Actual official high and low records may vary slightly from our data, if they occured in-between our weather recording intervals... More about our weather records

Advertising

Lafayette Weather History for the Previous 24 Hours

Scroll right to see more
 ConditionsComfort  
Time TempWeatherWind HumidityBarometerVisibility
2:53 AM
Sat, Jul 2
79 °FClear.3 mph90%30.01 "Hg10 mi
1:53 AM81 °FClear.3 mph85%30.01 "Hg10 mi
12:53 AM80 °FClear.No wind90%30.02 "Hg10 mi
11:53 PM
Fri, Jul 1
79 °FClear.No wind94%30.02 "Hg10 mi
10:53 PM82 °FClear.No wind85%30.02 "Hg10 mi
9:53 PM81 °FClear.No wind88%30.00 "Hg10 mi
8:53 PM84 °FSunny.No wind80%29.99 "Hg10 mi
7:53 PM90 °FSunny.No wind56%29.98 "Hg10 mi
6:53 PM93 °FSunny.3 mph47%29.97 "Hg10 mi
5:53 PM95 °FSunny.7 mph40%29.97 "Hg10 mi
4:53 PM96 °FSunny.3 mph38%29.98 "Hg10 mi
3:53 PM95 °FSunny.6 mph39%29.99 "Hg10 mi
2:53 PM96 °FSunny.8 mph38%30.00 "Hg10 mi
1:53 PM94 °FSunny.5 mph43%30.01 "Hg10 mi
12:53 PM94 °FSunny.3 mph43%30.03 "Hg10 mi
11:53 AM93 °FSunny.6 mph44%30.04 "Hg10 mi
10:53 AM91 °FSunny.3 mph54%30.04 "Hg10 mi
9:53 AM88 °FSunny.No wind63%30.03 "Hg10 mi
8:53 AM85 °FSunny.5 mph72%30.02 "Hg10 mi
7:53 AM81 °FSunny.3 mph85%30.01 "Hg10 mi
6:53 AM77 °FClear.No wind90%29.99 "Hg10 mi
5:53 AM76 °FClear.No wind91%29.98 "Hg9 mi
4:53 AM76 °FClear.No wind94%29.98 "Hg7 mi
Weather by CustomWeather, © 2016

See weather overviewHow to use our weather pages